Russell, KS

6:43 PM CST on December 10, 2016 (GMT -0600)
Russell Municipal

Weather History for KRSL - October, 2012

Change the Weather History Date:

Friday, October 26, 2012

  Actual Average Record
Temperature  
Mean Temperature 36 °F -  
Max Temperature 45 °F 66 °F 85 °F (1990)
Min Temperature 28 °F 41 °F 19 °F (1997)
Degree Days  
Heating Degree Days 28    
Moisture  
Dew Point 24 °F    
Average Humidity 67    
Maximum Humidity 88    
Minimum Humidity 46    
Precipitation  
Precipitation 0.00 in - - ()
Sea Level Pressure  
Sea Level Pressure 30.48 in    
Wind  
Wind Speed 10 mph (North)    
Max Wind Speed 14 mph    
Max Gust Speed 18 mph    
Visibility 10 miles    
Events      
Averages and records for this station are not official NWS values.
T = Trace of Precipitation, MM = Missing Value Source: NWS Daily Summary

Daily Weather History Graph

Daily Weather History Graph

Search for Another Location

Airport or City:

Trip Planner

Search our weather history database for the weather conditions in past years. The results will help you decide how hot, cold, wet, or windy it might be!

Date:

Astronomy

Oct. 26, 2012 Rise Set
Actual Time 7:56 AM CDT 6:41 PM CDT
Civil Twilight 7:29 AM CDT 7:08 PM CDT
Nautical Twilight 6:57 AM CDT 7:39 PM CDT
Astronomical Twilight 6:26 AM CDT 8:10 PM CDT
Moon 4:56 PM CDT (10/26) 4:55 AM CDT (10/26)
Length of Visible Light 11h 39m
Length of Day
10h 44m
Waxing Gibbous, 91% of the Moon is Illuminated
Oct 26
Waxing Gibbous
Oct 29
Full
Nov 6
Last Quarter
Nov 13
New
Nov 20
First Quarter

Hourly Weather History & Observations

Time (CDT) Temp. Windchill Dew Point Humidity Pressure Visibility Wind Dir Wind Speed Gust Speed Precip Events Conditions
12:53 AM 28.0 °F 18.6 °F 25.0 °F 88% 30.40 in 10.0 mi North 10.4 mph - N/A   Clear
1:51 AM 30.2 °F 21.3 °F 26.6 °F 86% 30.37 in 10.0 mi North 10.4 mph - N/A   Mostly Cloudy
1:53 AM 30.0 °F 21.7 °F 26.1 °F 85% 30.42 in 10.0 mi North 9.2 mph - N/A   Mostly Cloudy
2:53 AM 30.9 °F 22.2 °F 26.1 °F 82% 30.42 in 10.0 mi NNE 10.4 mph - N/A   Overcast
3:53 AM 32.0 °F 23.6 °F 25.0 °F 75% 30.43 in 10.0 mi NNE 10.4 mph - N/A   Overcast
4:53 AM 32.0 °F 23.0 °F 25.0 °F 75% 30.43 in 10.0 mi NNE 11.5 mph - N/A   Overcast
5:53 AM 32.0 °F 22.1 °F 25.0 °F 75% 30.45 in 10.0 mi NNE 13.8 mph - N/A   Overcast
6:53 AM 32.0 °F 22.5 °F 24.1 °F 73% 30.48 in 10.0 mi NNE 12.7 mph - N/A   Overcast
7:53 AM 32.0 °F 23.6 °F 24.1 °F 73% 30.52 in 10.0 mi NNE 10.4 mph - N/A   Overcast
8:53 AM 32.0 °F 22.5 °F 24.1 °F 73% 30.56 in 10.0 mi North 12.7 mph - N/A   Overcast
9:53 AM 33.1 °F 24.9 °F 23.0 °F 66% 30.58 in 10.0 mi North 10.4 mph - N/A   Overcast
10:53 AM 34.0 °F 26.0 °F 24.1 °F 67% 30.61 in 10.0 mi NNW 10.4 mph - N/A   Overcast
11:53 AM 36.0 °F 28.0 °F 23.0 °F 59% 30.60 in 10.0 mi NNW 11.5 mph - N/A   Overcast
12:53 PM 37.9 °F 33.5 °F 23.0 °F 55% 30.57 in 10.0 mi NNE 5.8 mph 18.4 mph N/A   Mostly Cloudy
1:14 PM 39.2 °F 33.0 °F 23.0 °F 52% 30.51 in 10.0 mi North 9.2 mph - N/A   Scattered Clouds
1:53 PM 39.9 °F 32.5 °F 24.1 °F 53% 30.55 in 10.0 mi North 12.7 mph - N/A   Partly Cloudy
2:53 PM 42.1 °F 35.2 °F 25.0 °F 51% 30.51 in 10.0 mi NNW 12.7 mph - N/A   Scattered Clouds
3:53 PM 42.1 °F 35.2 °F 25.0 °F 51% 30.48 in 10.0 mi North 12.7 mph - N/A   Clear
4:53 PM 45.0 °F 38.5 °F 25.0 °F 46% 30.46 in 10.0 mi NNW 13.8 mph - N/A   Clear
5:53 PM 42.1 °F 35.2 °F 24.1 °F 49% 30.46 in 10.0 mi North 12.7 mph - N/A   Clear
6:53 PM 36.0 °F 29.6 °F 24.1 °F 62% 30.47 in 10.0 mi North 8.1 mph - N/A   Clear
7:53 PM 34.0 °F 29.8 °F 23.0 °F 64% 30.47 in 10.0 mi NNE 4.6 mph - N/A   Clear
8:53 PM 34.0 °F 31.0 °F 23.0 °F 64% 30.47 in 10.0 mi NE 3.5 mph - N/A   Clear
9:53 PM 30.9 °F 26.2 °F 21.9 °F 69% 30.47 in 10.0 mi North 4.6 mph - N/A   Clear
10:53 PM 32.0 °F - 23.0 °F 69% 30.41 in 10.0 mi Calm Calm - N/A   Clear
11:53 PM 28.0 °F - 21.0 °F 75% 30.46 in 10.0 mi Calm Calm - N/A   Clear